Tracking 19832 objects as of 25-Aug-2019
HD Live streaming from Space Station
objects crossing your sky now

FENGYUN 1C DEB

Track FENGYUN 1C DEB now!
10-day predictions


NORAD ID: 30531
Int'l Code: 1999-025AJV
Perigee: 798.1 km
Apogee: 875.1 km
Inclination: 102.3 °
Period: 101.5 minutes
Semi major axis: 7207 km
RCS: 0.0087 m2 (small)
Launch date: May 10, 1999
Source: People's Republic of China (PRC)
Launch site: Taiyaun Space Center, China (TSC)

Note: This is SATELLITE DEBRIS
aabbcc
Your satellite tracking list
Your tracking list is empty




NASA's NSSDC Master Catalog

Two Line Element Set (TLE):
1 30531U 99025AJV 19236.79306631  .00000765  00000-0  39896-3 0  9999
2 30531 102.3276 168.6767 0053388 326.9553  58.8092 14.18778903648150
Source of the keplerian elements: AFSPC